This demonstration page uses our WeatherBlox Daily Observations layout. Learn more.

Left ArrowRight Arrow

Hourly Observations for March 29, 2018

Temp ( °F °C ) Dew Point ( °F °C ) Humidity (%) Winds ( mph kmh ) Pressure ( in mb ) Visibility ( mi km ) Precip ( " mm )
12:54 am 00:54 Cloudy 41 5 35 1.7 79 79 N 22 35 30.01 1016 9 14 0.00 0.00
1:21 am 01:21 Cloudy 40 4.4 35 1.7 83 83 N 17 28 30.03 1017 10 16 0.00 0.00
1:54 am 01:54 Cloudy 39 3.9 34 1.1 82 82 N 17 28 30.00 1016 10 16 0.00 0.00
2:54 am 02:54 Cloudy 39 3.9 34 1.1 82 82 NNE 17 28 30.01 1016 10 16 0.00 0.00
3:54 am 03:54 Cloudy 39 3.9 33 0.6 79 79 NNE 18 30 30.01 1016 10 16 0.00 0.00
4:54 am 04:54 Cloudy 37 2.8 32 0 82 82 undefined N/A 30.04 1017 10 16 0.00 0.00
5:54 am 05:54 Cloudy 36 2.2 30 -1.1 79 79 NNE 14 22 30.06 1018 9 14 0.00 0.00
6:54 am 06:54 Cloudy 35 1.7 28 -2.2 76 76 NNE 18 30 30.08 1019 10 16 0.00 0.00
7:54 am 07:54 Cloudy 33 0.6 28 -2.2 82 82 NE 14 22 30.11 1020 10 16 0.00 0.00
8:54 am 08:54 Cloudy 33 0.6 27 -2.8 78 78 NNE 16 26 30.12 1020 10 16 0.00 0.00
9:54 am 09:54 Cloudy 34 1.1 27 -2.8 76 76 NNE 14 22 30.14 1021 10 16 0.00 0.00
10:54 am 10:54 Mostly Cloudy 37 2.8 27 -2.8 67 67 NNE 16 26 30.14 1021 10 16 0.00 0.00
11:11 am 11:11 Partly Cloudy 37 2.8 26 -3.3 65 65 NNE 16 26 30.18 1022 10 16 0.00 0.00
11:54 am 11:54 Sunny 39 3.9 26 -3.3 60 60 NE 16 26 30.12 1020 10 16 0.00 0.00
12:54 pm 12:54 Sunny 40 4.4 25 -3.9 55 55 NNE 9 15 30.13 1020 10 16 0.00 0.00
1:54 pm 13:54 Sunny 44 6.7 26 -3.3 49 49 NE 14 22 30.12 1020 10 16 0.00 0.00
2:54 pm 14:54 Sunny 46 7.8 26 -3.3 46 46 N 14 22 30.11 1020 10 16 0.00 0.00
3:54 pm 15:54 Sunny 48 8.9 26 -3.3 42 42 N 8 13 30.11 1020 10 16 0.00 0.00
4:54 pm 16:54 Sunny 50 10 26 -3.3 39 39 N 13 20 30.13 1020 10 16 0.00 0.00
5:54 pm 17:54 Sunny 48 8.9 25 -3.9 41 41 NE 13 20 30.15 1021 10 16 0.00 0.00
6:54 pm 18:54 Cloudy 47 8.3 25 -3.9 42 42 NNE 12 19 30.17 1022 10 16 0.00 0.00
7:54 pm 19:54 Mostly Cloudy 44 6.7 25 -3.9 47 47 N 14 22 30.19 1023 10 16 0.00 0.00
8:54 pm 20:54 Cloudy 42 5.6 26 -3.3 53 53 N 14 22 30.22 1023 10 16 0.00 0.00
9:54 pm 21:54 Cloudy 40 4.4 25 -3.9 55 55 NNE 15 24 30.24 1024 10 16 0.00 0.00
10:54 pm 22:54 Cloudy 39 3.9 26 -3.3 60 60 NNE 13 20 30.26 1025 10 16 0.00 0.00
11:54 pm 23:54 Cloudy 38 3.3 26 -3.3 62 62 NNE 9 15 30.27 1025 10 16 0.00 0.00

Powered by AerisWeather